Regional Weather Roundup
Issued by NWS

Home | Current Version | Previous Version | Text Only | Print | Product List | Glossary On
Versions: 1 2 3 4 5 6 7 8 9 10 11 12 13 14 15 16 17 18 19 20 21 22 23 24 25 26 27 28 29 30 31 32 33 34 35 36 37 38 39 40 41 42 43 44 45 46 47 48 49 50
000
ASHW40 PHFO 061343
RWRHI

WEATHER ROUNDUP FOR HAWAII
NATIONAL WEATHER SERVICE HONOLULU HI
300 AM HST SAT FEB 06 2016

THIS IS AN AUTOMATED REPORT THAT HAS NOT BEEN QUALITY CONTROLLED.

NOTE..."FAIR" INDICATES FEW OR NO CLOUDS BELOW 12,000 FEET WITH NO
SIGNIFICANT WEATHER AND/OR OBSTRUCTIONS TO VISIBILITY.

* - THESE SITES REPORT LIMITED FIELDS

HIZ001>004-061400-
KAUAI-NIIHAU-

CITY           SKY/WX    TMP DP  RH WIND       PRES   REMARKS
LIHUE APT      CLEAR     66  62  87 NW6       29.98F
PORT ALLEN*      N/A     64 N/A N/A NE7         N/A
POIPU*           N/A     63 N/A N/A NE5         N/A
PRINCEVILLE*     N/A     64 N/A N/A S2          N/A
KOKOLE POINT*  NOT AVBL
MOLOAA DAIRY*    N/A     68  63  83 W3          N/A
WAIMEA HTS*      N/A    N/A N/A N/A N2G12       N/A
PUU OPAE*        N/A     63  57  82 VRB8        N/A
PUU LUA*       NOT AVBL
MAKAHA RIDGE*    N/A    N/A N/A N/A NE1         N/A
$$

HIZ005>011-061400-
OAHU-

CITY           SKY/WX    TMP DP  RH WIND       PRES   REMARKS
HONOLULU       PTCLDY    73  66  78 CALM      29.96F
KALAELOA       PTCLDY    71  65  81 NE5       29.98F
KANEOHE MCB    MOCLDY    71  68  90 CALM      29.93F
WHEELER FIELD  FAIR      65  64  96 CALM      29.96F
BELLOWS*         N/A    N/A N/A N/A W3          N/A
KAHUKU*          N/A    N/A N/A N/A VRB1        N/A
WHEELER*         N/A    N/A N/A N/A N1          N/A
WAIANAE HARBOR   N/A    N/A N/A N/A E5          N/A
DILLINGHAM*      N/A     70  63  78 MISG        N/A
KAHUKU TRN*      N/A     79  75  89 S3          N/A
KAWAILOA*        N/A     66  63  88 E5          N/A
KII*             N/A     70  68  94 S2          N/A
MAKUA RANGE*     N/A    N/A N/A N/A E6          N/A
OAHU FOREST NW   N/A    N/A N/A N/A CALM        N/A
SCHOFIELD BRK*   N/A     64  63  94 MISG        N/A
SCHOFIELD S*   NOT AVBL
WAIANAE VLY*     N/A    N/A N/A N/A MISG        N/A
KUAOKALA*        N/A     72  61  68 CALM        N/A
HONOULIUULI*   NOT AVBL
MOKUOLOE IS*   NOT AVBL
PALEHUA*         N/A     64  64 100 NW2         N/A
WAIAWA PHB*    NOT AVBL
$$

HIZ012>013-061400-
MOLOKAI-

CITY           SKY/WX    TMP DP  RH WIND       PRES   REMARKS
MOLOKAI AIRPT  PTCLDY    68  65  90 NE6       29.98F
KALAUPAPA      NOT AVBL
MAKAPULAPAI*     N/A     72  66  83 SW5         N/A
MOLOKAI 1*     NOT AVBL
PUU ALII*        N/A     56  56 100 CALM        N/A
$$

HIZ016-061400-
KAHOOLAWE-

CITY           SKY/WX    TMP DP  RH WIND       PRES   REMARKS
KAHOOLAWE*       N/A     66 N/A N/A S1          N/A
HAKIOAWA*        N/A     69  68  97 MISG      30.39F
HONOKANAIA*      N/A     73  68  84 N3G10     29.93F
KANELOA*         N/A     70  66  88 E1        30.06F
KEALIALALO*      N/A     68  66  94 S5        29.96F
LUA MAKIKA*    NOT AVBL
$$

HIZ014>015-061400-
LANAI-

CITY           SKY/WX    TMP DP  RH WIND       PRES   REMARKS
LANAI CITY     FAIR      65  62  90 CALM      30.02F
LANAI 1*       NOT AVBL
$$

HIZ017>028-061400-
MAUI-

CITY           SKY/WX    TMP DP  RH WIND       PRES   REMARKS
KAHULUI        CLEAR     66  63  90 MISG      29.96F
KAPALUA-W MAUI NOT AVBL
HANA AIRPORT   CLEAR     64  32  29 S3        29.98S
HANA*            N/A     66 N/A N/A S3          N/A
HALEAKALA SUMM   N/A     45   5  19 S8          N/A
MAALAEA BAY*     N/A     64 N/A N/A N3          N/A
HALEAKALA*     NOT AVBL
KAUPO GAP*       N/A     55  48  76 N9          N/A
KULA 1*          N/A     46  41  81 E6          N/A
$$

HIZ023>026-061400-
BIG ISLAND OF HAWAII COAST AND LOWER SLOPES-

CITY           SKY/WX    TMP DP  RH WIND       PRES   REMARKS
KAILUA KONA    PTCLDY    74  66  76 CALM      29.97
HILO           PTCLDY    65  56  72 SW7       30.00F
HONOKAA*         N/A     61 N/A N/A VRB1        N/A
KAWAIHAE MWT*    N/A     75 N/A N/A E7          N/A
KAWAIHAE*        N/A     73 N/A N/A SE3       29.97S
SOUTH POINT*     N/A     64 N/A N/A NW9         N/A
UPOLU AIRPORT*   N/A    N/A N/A N/A SE6         N/A
KAMUELA*       SUNNY     52  48  87 E8        30.08S
HAKALAU*         N/A    N/A N/A N/A W5          N/A
KALOKO-HONOKO*   N/A     72  61  68 NE5       29.96F
PALI 2*          N/A     57  54  88 VRB6        N/A
KEALAKOMO*       N/A     68  64  88 N5          N/A
KAUPULEHU*       N/A     66  63  88 SE5         N/A
KAPAPALA*        N/A     55  53  91 NW6         N/A
LOWER KAHUKU*    N/A     54 -44   1 N3G9        N/A
PUHE CS*         N/A     72  57  60 E7          N/A
PUHO CS*         N/A     69  58  69 E3          N/A
PTA KEAMUKU*     N/A     57  48  72 CALM        N/A
WAIKOLOA*        N/A     64  46  52 SE6G12      N/A
$$

HIZ027>028-061400-
BIG ISLAND OF HAWAII INTERIOR AND SUMMMITS-

CITY           SKY/WX    TMP DP  RH WIND       PRES   REMARKS
BRADSHAW FIELD CLOUDY    40  24  53 SE6       30.29F
MK VISITOR CEN   N/A     39   0  19 VRB2        N/A
MAUNA KEA*       N/A     37 -31   4 N22         N/A  WCI  27
MAUNA LOA*       N/A     43 -51   1 MISG        N/A
MAUNA LOA 1*   NOT AVBL
PTA KIPUKA*      N/A     43  41  93 E5          N/A
PTA RANGE 17*    N/A     64  55  72 E6          N/A
PTA WEST*        N/A     48  43  81 SE12        N/A
NENE CABIN*      N/A    N/A N/A N/A N7          N/A
AHUMOA*          N/A     46  36  66 NE10        N/A
PTA PORTABLE*  NOT AVBL
PUU MALI*        N/A     46  41  81 S7          N/A
$$

HIC003-061400-
NORTHWEST ISLANDS-

CITY           SKY/WX    TMP DP  RH WIND       PRES   REMARKS
MIDWAY ISLAND  PTCLDY    57  43  58 N10G21    30.31S
MIDWAY NOS*      N/A     61 N/A N/A MISG      30.28F
FRENCH FRIGATE NOT AVBL
$$

PHZ110>124-180-061400-
BUOY REPORTS

STATION/POSITION TIME  TEMP    WIND        PRES    WAVE   SWELL
                       AIR SEA DIR/SP/G            HT/PER HT/DIR
                 (UTC) (F)     (DEG/KT/KT) (MB)    (FT/S) (FT/D)
BUOY 51001       1300   75 76  260/ 12/ 16 1013.6F
BUOY 51101       1250   75 76  260/ 12/ 16 1013.6F   6/11   5/300
BUOY 51100       NOT AVBL
BUOY 51002       1250   76 77  100/ 14/ 16 1014.3F   7/11   7/310
BUOY 51003       1250   76 78   30/  8/ 10 1014.3F   6/11   5/350
BUOY 51004       1250   76 77   70/ 14/ 17 1014.4F   8/ 9   7/ 90
BARBERS PT BUOY  NOT AVBL
WAIMEA BAY BUOY  1304      78                N/A     4/11   3/320
KAILUA BAY BUOY  1311      77                N/A     5/11   3
LANAI BUOY       NOT AVBL
BARBERS PT 2     1303      78                N/A     4/11   2/300
PAUWELA MAUI     1307      76                N/A     6/10   3/340
HILO             NOT AVBL
KANEOHE BAY BUOY 1306      77                N/A     4/11   3/350
HANALEI KAUAI    1301      77                N/A     6/11   5/310
KAHULUI HARBOR   1300   70 77  160/  3/  4 1014.0F
HONOLULU HARBOR  1300   75 77   70/  2/  2 1015.0F
KILO NALU        NOT AVBL
HILO HARBOR      1300   65 77  200/  6/  7 1015.4F
MOKUOLOE         1200   71 79  200/  2/  4 1015.0F
NAWILIWILI       1300   66 79  240/  5/  6 1014.9F
WHOTS BUOY       NOT AVBL
BUOY 51028       NOT AVBL
$$

......................KEY........................................
  SKY/WX - SKY CONDITIONS/PRESENT WEATHER
  TMP    - TEMPERATURE IN FAHRENHEIT
  DWPT   - DEWPOINT IN FAHRENHEIT
  RH     - RELATIVE HUMIDITY IN PERCENT
  WIND   - DIRECTION AND SPEED /MPH FOR ISLANDS...KTS FOR BUOYS/
  PRES   - MEAN SEA LEVEL PRESSURE IN INCHES OF HG
  VSB    - VISIBILITY IN MILES
  HX     - HEAT INDEX
  WCI    - WIND CHILL INDEX
  VRB    - VARIABLE WIND DIRECTION
  N/A    - NOT AVAILABLE



USA.gov is the U.S. government's official web portal to all federal, state and local government web resources and services.